ATLAS 5 CENTAUR DEB, 43986

Orbit data source: Space-Track

ATLAS 5 CENTAUR DEB, 43986 is space debris in HEO originally from a launch on Wed, 17 Sep 2014 UTC launched from the Air Force Eastern Test Range (AFETR). Debris objects in space refer to the collection of defunct objects orbiting the Earth. Examples of debris include non-operational satellites, rocket bodies, and fragments generated from explosions, collisions, or faulty payload assembly.

Loading next visibility...
Identifier
43986, 2014-055AR
Orbit
HEO
Country
Flag of USUS
Related business
Flag of USUnited Launch Alliance/Lockheed Martin (US)
Manufacturer
Unknown
Mission
Spacecraft
Bus & Motor
Unknown
Mass
Unknown
Launch date (UTC)
2014-09-17 (11 years ago)
Launch vehicle
Unknown
Launch site
Air Force Eastern Test Range (AFETR)
Object type
Payload
Rocket body
Debris
Shape & HBR
Unknown shape, 1.1 m
Radar Cross Section
RCS unknown

Expand to show TLE details & history
Last TLE update: 1 day ago

TLE from 1 day ago
0 ATLAS 5 CENTAUR DEB
1 43986U 14055AR  25287.33254346 -.00000013  00000-0  00000-0 0  9994
2 43986  19.5879 173.6270 4851709 113.6969 303.5681  1.84562339 47576
Epoch: 2025-10-14T07:58Z
TLE epoch observation values (Epoch: 2025-10-14T07:58:51.754Z)
Latitude
-0.00001°
Longitude
30.8281°
Altitude
20,290.663 km
Speed
3.962 km/s
True Right ascension
11h 34m 39s
True Declination
0° 00' 00"
Sunlit
Object was in daylight at epoch
Visualization orbit readout
Latitude
Unknown
Longitude
Unknown
Altitude
Unknown
Speed
Unknown
Apparent Right ascension
Unknown
Apparent Declination
Unknown
Sunlit
N/A
Visualization observer readout
Local Sidereal Time
04:49:57
Azimuth
Unknown
Elevation
Unknown
Doppler factor
Unknown
Orbital elements
Apogee altitude
35,319.681 km
Perigee altitude
8,076.26 km
Semi-major axis
28,076.107 km
Eccentricity
0.48517
Inclination
19.5879°
RAAN
173.627°
Arg. of periapsis
113.6969°
True anomaly
246.28519°
Mean anomaly
303.5681°
Eccentric anomaly
275.91801°
Mean motion
0.46136 °/min
Orbital period
780.31 mins
BSTAR
0
Loading maneuver chart data...
Computing Atmospheric mass density...

Documentation

Showing up to 5 results
|